Location: Unspecified
(41.8160°N, 0.0000°E)
Time: 12:29:20
(UTC+00:00)

Envisat - Visible Passes

Search period start: 17 October 2019 00:00
Search period end: 27 October 2019 00:00
Orbit: 764 x 766 km, 98.1° (Epoch: 17 October)

Date Brightness Start Highest point End Pass type
(mag) Time Alt. Az. Time Alt. Az. Time Alt. Az.
17 Oct 3.1 17:42:01 10° SSE 17:46:58 56° ENE 17:51:57 10° N visible
17 Oct 5.8 19:23:03 10° SW 19:26:20 17° W 19:29:38 10° NW visible
18 Oct 4.5 18:44:36 10° SSW 18:49:17 37° W 18:54:01 10° NNW visible
19 Oct 3.1 18:07:21 10° SSE 18:12:25 84° WSW 18:17:33 10° NNW visible
20 Oct 3.3 17:30:58 10° SE 17:35:45 45° ENE 17:40:35 10° N visible
20 Oct 5.5 19:11:06 10° SW 19:14:58 22° W 19:18:51 10° NW visible
21 Oct 6.3 05:40:54 10° NE 05:43:46 15° E 05:46:37 10° SE visible
21 Oct 4.1 18:33:05 10° S 18:37:58 47° W 18:42:53 10° NNW visible
22 Oct 2.9 17:56:06 10° SSE 18:01:10 78° ENE 18:06:16 10° N visible
22 Oct 6.2 19:38:48 10° WSW 19:40:46 12° W 19:42:44 10° WNW visible
23 Oct 5.1 18:59:20 10° SSW 19:03:37 27° W 19:07:56 10° NW visible
24 Oct 6.6 05:30:40 10° ENE 05:32:22 12° E 05:34:03 10° ESE visible
24 Oct 3.6 18:21:40 10° S 18:26:40 61° W 18:31:43 10° NNW visible
25 Oct 3.0 17:44:57 10° SSE 17:49:55 62° ENE 17:54:57 10° N visible
25 Oct 5.9 19:26:22 10° SW 19:29:21 16° W 19:32:23 10° NW visible
26 Oct 6.0 05:54:22 10° NE 05:58:10 21° E 06:01:56 10° SE visible
26 Oct 4.7 18:47:41 10° SSW 18:52:16 34° W 18:56:54 10° NNW visible
